STARLINK-1993 (47588 NORAD) Tracking and Keplerian Element Data

This shows tracking and keplerian element data for the satellite.

Feedback or suggestion? Click here.




ElementValue
Catalog47588
NameSTARLINK-1993
Epoch Orbit1175
Epoch Day106.25002315
Epoch Year2021
RAAN136.3552
Inclination53.0536
Eccentricity0.0004224
Argument of Perigee11.685
Mean Anonmoly144.595
Mean Motion15.62800034
Decay Rate-0.00048426
L11 47588U 21009AS 21106.25002315 -.00048426 00000-0 -52494-3 0 9995
L22 47588 53.0536 136.3552 0004224 11.6850 144.5950 15.62800034 11755

Live tracking and technical data element details for STARLINK-1993 (NORAD 47588). STARLINK-1993 can be tracked NOW for your location showing map with azimuth and elevation plus other details from your city location.

Track the satellite on the map from your city or location and see movement details for azimuth, elevation, latitude, longitude, range, height, and movement on the map or in text.







IsCatalogInMostPopularTable: catalog: 47588, numindb: 18
Update: records affected: 1



GetName: 47588 STARLINK-1993

Hit Count: updated at: Fri, 16 Apr 2021 12:07:26 GMT